Location: Buckeye Ditch
(40.9104°N, 122.9517°W)
Time: 22:06:42
(UTC+00:00)

Transit 2A - Pass Details

Date: 23 May 2025
Orbit: 599 x 947 km, 66.7° (Epoch: 20 June)

Event Time Altitude Azimuth Distance (km) Brightness Sun altitude
Rises 13:24:53 0° 186° (S) 3,066 8.8 5.6°
Reaches altitude 10° 13:27:27 10° 177° (S) 2,099 8.1 6.0°
Maximum altitude 13:31:40 34° 113° (ESE) 1,063 7.5 6.8°
Drops below altitude 10° 13:35:40 10° 49° (NE) 1,983 9.8 7.5°
Sets 13:38:01 0° 39° (NE) 2,869 10.2 7.9°
